SCP
0 0 0 0 0 0 0 0 0 0 0 0 0 0 0 0 0 0 0 0 0 0 0 0 0 0 0 0 0 0 0 0 0 0 0 0 0 0 0 0 0 0 0 0 0 0 0 0 0
0 0 0 0 0 0 0 0 0 0 0 0 0 0 0 0 0 0 0 0 0 0 0 0 0 0 0 0 0 0 0 0 0 0 0 0 0 0 0 0 0 0 0 0 0 0 0 0 0
0 0 0 0 0 0 0 0 0 0 0 0 0 0 0 0 0 0 0 0 0 0 0 0 0 0 0 0 0 0 0 0 0 0 0 0 0 0 0 0 0 0 0 0 0 0 0 0 0
0 0 0 0 0 0 0 0 0 0 0 0 0 0 0 0 0 0 0 0 0 0 0 0 0 0 0 0 0 0 0 0 0 0 0 0 0 0 0 0 0 0 0 0 0 0 0 0 0
0 0 0 0 0 0 0 0 0 0 0 0 0 0 0 0 0 0 0 0 0 0 0 0 0 0 0 0 0 0 0 0 0 0 0 0 0 0 0 0 0 0 0 0 0 0 0 0 0
0 0 0 0 0 0 0 0 0 0 0 0 0 0 0 0 0 0 0 0 0 0 0 0 0 0 0 0 0 0 0 0 0 0 0 0 0 0 0 0 0 0 0 0 0 0 0 0 0
0 0 0 0 0 0 0 0 0 0 0 0 0 0 0 0 0 0 0 0 0 0 0 0 0 0 0 0 0 0 0 0 0 0 0 0 0 0 0 0 0 0 0 0 0 0 0 0 0
0 0 0 0 0 0 0 0 0 0 0 0 0 0 0 0 0 0 0 0 0 0 0 0 0 0 0 0 0 0 0 0 0 0 0 0 0 0 0 0 0 0 0 0 0 0 0 0 0
0 0 0 0 0 0 0 0 0 0 0 0 0 0 0 0 0 0 0 0 0 0 0 0 0 0 0 0 0 0 0 0 0 0 0 0 0 0 0 0 0 0 0 0 0 0 0 0 0
0 0 0 0 0 0 0 0 0 0 0 0 0 0 0 0 0 0 0 0 0 0 0 0 0 0 0 0 0 0 0 0 0 0 0 0 0 0 0 0 0 0 0 0 0 0 0 0 0
0 0 0 0 0 0 0 0 0 0 0 0 0 0 0 0 0 0 0 0 0 0 0 0 0 0 0 0 0 0 0 0 0 0 0 0 0 0 0 0 0 0 0 0 0 0 0 0 0
0 0 0 0 0 0 0 0 0 0 0 0 0 0 0 0 0 0 0 0 0 0 0 0 0 0 0 0 0 0 0 0 0 0 0 0 0 0 0 0 0 0 0 0 0 0 0 0 0
0 0 0 0 0 0 0 0 0 0 0 0 0 0 0 0 0 0 0 0 0 0 0 0 0 0 0 0 0 0 0 0 0 0 0 0 0 0 0 0 0 0 0 0 0 0 0 0 0
0 0 0 0 0 0 0 0 0 0 0 0 0 0 0 0 0 0 0 0 0 0 0 0 0 0 0 0 0 0 0 0 0 0 0 0 0 0 0 0 0 0 0 0 0 0 0 0 0
0 0 0 0 0 0 0 0 0 0 0 0 0 0 0 0 0 0 0 0 0 0 0 0 0 0 0 0 0 0 0 0 0 0 0 0 0 0 0 0 0 0 0 0 0 0 0 0 0
0 0 0 0 0 0 0 0 0 0 0 0 0 0 0 0 0 0 0 0 0 0 0 0 0 0 0 0 0 0 0 0 0 0 0 0 0 0 0 0 0 0 0 0 0 0 0 0 0
0 0 0 0 0 0 0 0 0 0 0 0 0 0 0 0 0 0 0 0 0 0 0 0 0 0 0 0 0 0 0 0 0 0 0 0 0 0 0 0 0 0 0 0 0 0 0 0 0
0 0 0 0 0 0 0 0 0 0 0 0 0 0 0 0 0 0 0 0 0 0 0 0 0 0 0 0 0 0 0 0 0 0 0 0 0 0 0 0 0 0 0 0 0 0 0 0 0
0 0 0 0 0 0 0 0 0 0 0 0 0 0 0 0 0 0 0 0 0 0 0 0 0 0 0 0 0 0 0 0 0 0 0 0 0 0 0 0 0 0 0 0 0 0 0 0 0
0 0 0 0 0 0 0 0 0 0 0 0 0 0 0 0 0 0 0 0 0 0 0 0 0 0 0 0 0 0 0 0 0 0 0 0 0 0 0 0 0 0 0 0 0 0 0 0 0
0 0 0 0 0 0 0 0 0 0 0 0 0 0 0 0 0 0 0 0 0 0 0 0 0 0 0 0 0 0 0 0 0 0 0 0 0 0 0 0 0 0 0 0 0 0 0 0 0
0 0 0 0 0 0 0 0 0 0 0 0 0 0 0 0 0 0 0 0 0 0 0 0 0 0 0 0 0 0 0 0 0 0 0 0 0 0 0 0 0 0 0 0 0 0 0 0 0
0 0 0 0 0 0 0 0 0 0 0 0 0 0 0 0 0 0 0 0 0 0 0 0 0 0 0 0 0 0 0 0 0 0 0 0 0 0 0 0 0 0 0 0 0 0 0 0 0
0 0 0 0 0 0 0 0 0 0 0 0 0 0 0 0 0 0 0 0 0 0 0 0 0 0 0 0 0 0 0 0 0 0 0 0 0 0 0 0 0 0 0 0 0 0 0 0 0
0 0 0 0 0 0 0 0 0 0 0 0 0 0 0 0 0 0 0 0 0 0 0 0 0 0 0 0 0 0 0 0 0 0 0 0 0 0 0 0 0 0 0 0 0 0 0 0 0
0 0 0 0 0 0 0 0 0 0 0 0 0 0 0 0 0 0 0 0 0 0 0 0 0 0 0 0 0 0 0 0 0 0 0 0 0 0 0 0 0 0 0 0 0 0 0 0 0
0 0 0 0 0 0 0 0 0 0 0 0 0 0 0 0 0 0 0 0 0 0 0 0 0 0 0 0 0 0 0 0 0 0 0 0 0 0 0 0 0 0 0 0 0 0 0 0 0
0 0 0 0 0 0 0 0 0 0 0 0 0 0 0 0 0 0 0 0 0 0 0 0 0 0 0 0 0 0 0 0 0 0 0 0 0 0 0 0 0 0 0 0 0 0 0 0 0
0 0 0 0 0 0 0 0 0 0 0 0 0 0 0 0 0 0 0 0 0 0 0 0 0 0 0 0 0 0 0 0 0 0 0 0 0 0 0 0 0 0 0 0 0 0 0 0 0
0 0 0 0 0 0 0 0 0 0 0 0 0 0 0 0 0 0 0 0 0 0 0 0 0 0 0 0 0 0 0 0 0 0 0 0 0 0 0 0 0 0 0 0 0 0 0 0 0
Wind_Speed
9 11 8 2 3 4 6 2 2 3 2 7 5 3 4 6 6 5 4 8 12 15 16 18 20 18 16 15 13 12 11 10 10 11 10 10 11 11 11 11 11 11 12 12 12 13 13 13 13
9 8 5 3 4 6 3 4 3 6 7 4 1 3 2 5 8 9 5 8 13 15 16 15 20 19 17 15 14 13 12 11 11 11 10 10 10 11 10 10 10 10 11 11 11 11 11 12 12
10 8 4 3 5 6 1 5 6 6 4 0 2 1 1 4 7 6 6 9 11 13 14 15 21 19 17 16 15 14 12 11 10 10 10 10 10 10 9 9 9 9 9 10 10 10 10 10 10
5 3 4 5 8 5 1 5 6 1 4 2 3 2 4 6 5 7 8 9 11 12 13 16 21 19 18 16 15 14 13 12 11 10 10 9 9 9 9 8 8 8 8 8 9 9 9 9 9
4 4 5 6 9 1 2 5 4 3 1 3 1 4 4 5 10 10 8 8 10 11 13 16 20 19 18 16 15 14 13 12 11 10 9 9 9 9 8 8 7 7 6 7 7 7 7 7 8
3 4 5 7 8 3 3 3 2 4 3 2 2 3 5 6 8 8 8 6 9 11 13 16 20 19 18 17 16 15 13 12 11 10 9 9 9 8 8 7 6 5 5 5 5 5 5 6 6
4 4 7 8 4 1 2 4 1 4 5 2 2 2 6 6 6 6 7 6 8 10 12 14 12 14 16 16 16 15 14 13 12 10 10 9 9 8 8 7 6 5 4 3 3 3 3 3 3
3 4 7 7 5 2 3 4 1 3 6 4 3 3 5 4 4 5 5 4 6 8 10 13 11 10 9 10 14 14 14 13 12 11 9 9 8 7 7 7 6 5 4 3 2 1 0 1 1
3 4 6 6 4 3 3 2 1 2 3 5 3 1 7 8 6 5 5 3 5 7 8 12 12 10 9 8 11 11 12 12 11 9 10 8 4 5 5 7 8 7 5 4 4 3 3 3 4
3 4 8 7 5 5 5 3 3 2 5 6 4 2 8 6 6 6 6 7 7 7 7 9 12 11 9 8 8 6 6 6 6 5 7 5 4 4 5 8 9 8 7 6 7 7 6 5 4
5 7 8 6 5 5 6 6 5 5 6 4 4 4 3 3 4 5 6 7 9 9 8 8 10 11 10 6 6 4 4 4 5 6 7 5 4 3 3 3 4 4 6 4 6 5 4 4 4
5 7 7 5 3 2 5 6 6 6 5 2 2 2 2 2 3 4 4 5 7 10 9 7 8 10 9 7 5 5 4 4 4 4 6 4 3 3 3 3 4 4 3 4 4 3 5 5 5
6 8 7 4 2 4 6 7 7 8 3 1 1 0 2 2 2 1 2 2 5 8 9 8 7 9 8 7 5 5 5 5 5 4 4 4 3 3 3 3 3 3 3 3 4 4 5 5 5
6 7 8 7 7 7 7 8 7 6 3 2 3 2 1 1 2 1 0 1 3 7 9 7 7 8 8 6 5 4 4 5 5 5 5 5 4 4 4 3 3 3 3 3 3 4 4 4 4
4 8 10 11 9 4 2 7 10 7 4 5 5 4 3 2 2 2 1 1 3 6 8 8 7 7 8 7 6 4 4 4 4 4 5 6 5 4 4 3 3 3 3 4 3 4 3 3 4
7 7 7 5 6 6 3 8 2 8 6 5 4 5 5 5 5 4 3 2 3 6 8 7 5 6 7 6 5 3 3 4 3 3 3 5 5 5 4 3 3 4 3 3 3 3 3 4 4
8 7 9 4 7 7 6 6 2 6 6 5 4 5 7 6 6 5 4 4 5 7 8 7 6 5 6 6 4 3 3 2 2 2 2 3 3 4 3 3 3 3 3 3 3 3 3 4 4
6 6 6 2 6 5 6 8 6 7 7 6 5 6 7 7 6 5 6 6 7 7 8 8 6 4 6 5 4 3 2 1 1 1 2 2 2 3 3 2 3 3 3 3 3 4 4 4 5
7 8 10 7 1 3 7 10 8 6 6 6 6 7 8 8 7 6 6 7 7 7 7 7 6 5 5 4 3 3 2 2 1 2 2 3 3 4 3 3 3 3 3 4 4 4 5 4 3
5 8 10 8 2 2 6 10 9 6 7 7 8 9 10 9 7 6 7 6 7 7 7 7 7 6 5 4 3 2 2 1 1 1 1 2 2 3 3 3 3 3 3 5 5 4 4 4 3
7 9 9 8 2 5 5 9 9 5 5 5 7 10 10 10 8 7 7 7 7 7 6 6 7 7 6 5 4 2 2 1 1 1 1 2 2 2 2 3 3 3 4 4 5 5 5 4 4
8 5 6 6 4 5 5 5 4 8 7 7 7 9 10 9 9 8 8 8 7 6 6 7 7 7 5 4 4 3 2 1 1 1 1 2 2 2 2 2 3 3 3 4 5 5 4 5 4
3 2 2 4 5 7 6 6 6 10 9 10 9 9 10 9 9 8 8 8 7 6 6 6 7 6 5 4 4 3 2 1 1 1 0 1 1 2 2 2 2 3 3 4 5 5 5 4 5
3 1 3 4 3 6 9 9 6 9 14 14 12 10 11 10 9 9 8 8 7 6 5 6 6 6 5 4 4 4 3 2 2 2 2 2 1 1 1 2 2 3 4 5 5 5 6 6 6
3 3 3 4 4 8 4 5 6 6 12 15 16 13 12 11 10 9 9 8 7 7 6 6 6 6 5 4 4 4 3 1 1 1 1 2 2 2 2 1 2 3 4 5 5 5 6 6 7
8 7 5 3 3 1 2 5 2 5 4 10 14 14 13 11 10 9 9 8 8 8 7 6 6 5 4 4 3 3 2 1 1 1 1 2 2 2 2 3 4 5 5 5 5 5 6 6 7
7 8 5 4 6 4 5 5 3 3 3 5 12 14 13 12 11 10 9 8 8 8 6 6 6 5 4 3 3 2 1 1 0 1 2 2 2 3 3 4 5 6 6 6 6 5 7 7 7
4 2 4 4 4 5 6 7 6 7 6 6 10 12 12 12 11 10 9 8 8 7 6 6 6 5 4 3 2 1 0 1 1 2 3 3 4 4 5 5 6 6 6 6 6 6 7 7 7
7 4 5 4 4 3 4 2 2 8 10 10 9 11 13 12 11 10 9 8 8 7 6 5 5 4 3 2 1 1 0 1 2 3 3 4 4 5 5 6 6 7 7 7 7 7 8 8 8
8 9 7 4 5 4 3 3 1 5 6 7 8 9 10 11 11 10 9 8 8 7 6 6 5 4 3 2 1 0 1 2 3 3 4 4 5 5 6 6 7 7 8 7 7 8 8 8 9
Wind_Direction
269 254 244 252 252 241 247 96 71 72 65 62 50 345 345 47 44 91 148 140 127 139 148 160 157 156 155 153 147 141 136 128 122 116 111 106 99 93 87 81 76 72 68 65 63 61 61 62 63
274 247 238 241 249 252 219 129 106 64 59 56 135 249 275 85 93 115 135 124 131 141 148 160 159 159 158 156 152 146 143 137 130 122 117 114 106 99 93 88 81 76 71 68 67 65 63 63 62
269 255 234 226 244 263 54 93 80 79 87 278 247 190 16 63 80 100 126 132 134 141 149 160 160 161 161 160 156 152 150 145 140 133 127 122 114 106 99 93 86 80 75 71 68 66 64 62 62
244 224 243 246 251 242 32 93 80 55 132 157 298 273 113 68 73 107 129 143 139 144 149 157 162 164 164 163 160 156 155 152 147 141 136 130 123 116 109 101 94 86 79 74 69 66 64 61 59
242 236 232 248 261 242 104 69 74 293 220 161 246 303 75 81 99 116 138 152 145 148 147 155 165 167 167 166 165 161 160 158 153 150 146 140 134 126 120 115 107 98 89 79 72 67 62 59 55
239 245 239 238 240 186 139 125 152 262 276 163 176 282 91 111 104 117 132 158 148 146 144 154 168 169 170 170 169 166 165 164 162 159 156 151 145 139 136 131 123 114 102 90 80 70 63 57 53
261 260 269 275 281 146 121 80 23 307 309 343 56 321 101 83 100 125 137 162 143 142 141 150 166 169 173 174 172 171 171 170 169 168 165 162 158 156 153 150 145 139 127 112 96 79 64 53 44
302 288 271 276 287 306 71 82 48 330 318 2 27 315 93 129 127 117 127 144 136 140 144 150 163 168 171 172 175 174 175 175 175 173 169 168 169 171 171 167 170 168 165 163 160 143 81 2 338
288 283 279 284 310 331 57 96 202 149 270 290 273 256 124 136 132 128 132 144 144 148 151 152 164 167 168 170 175 173 176 178 177 172 167 163 170 178 182 186 183 187 196 207 217 227 241 252 253
224 261 272 298 342 351 359 354 328 305 270 263 259 129 121 136 157 168 177 176 171 170 170 159 163 163 166 172 166 170 172 171 174 171 167 172 185 187 182 178 184 196 211 226 235 240 248 250 238
238 248 275 306 359 7 336 315 297 275 270 289 337 28 100 157 181 199 207 188 176 172 173 167 162 161 163 162 158 166 166 166 180 183 174 178 185 174 159 153 175 198 214 226 234 234 229 229 226
262 281 286 301 24 354 296 294 293 277 275 318 22 29 338 274 228 212 218 208 167 160 165 169 159 155 158 157 159 162 160 163 172 183 177 174 174 180 170 172 180 191 199 209 212 208 226 228 229
266 268 278 293 288 257 266 270 272 268 265 324 48 84 272 287 300 252 216 212 154 151 156 166 158 151 152 152 158 162 163 166 172 177 182 182 172 180 191 193 198 203 202 203 209 222 239 240 237
315 323 306 281 252 239 245 258 249 245 179 173 183 178 137 36 354 356 70 182 160 147 150 157 159 151 147 151 159 164 165 165 171 172 183 192 186 188 195 200 205 212 213 216 215 225 236 239 237
302 284 275 250 230 209 240 262 234 210 173 198 194 154 125 94 70 47 57 155 161 142 140 149 159 152 151 158 166 166 170 166 169 169 184 192 195 199 199 204 212 217 220 226 229 242 253 258 257
250 254 259 219 167 132 179 267 207 145 171 209 189 140 127 100 80 66 60 76 111 120 125 130 137 148 151 159 163 156 165 161 162 167 182 199 201 203 207 209 218 225 225 225 227 233 250 257 256
237 243 251 194 171 162 202 263 164 161 184 206 193 149 126 104 85 77 79 88 101 110 112 117 127 151 147 147 140 133 129 129 139 158 180 200 212 215 214 217 224 233 239 238 235 233 235 255 265
278 288 295 272 170 185 226 258 236 195 190 207 184 141 120 105 91 84 83 81 90 102 111 119 127 136 122 119 116 108 103 111 136 170 194 207 224 231 229 230 239 246 250 250 242 245 247 247 255
292 303 302 302 133 185 249 261 247 195 187 202 173 143 125 117 115 107 101 97 95 100 110 119 123 120 114 111 120 127 151 177 192 205 216 218 222 229 225 227 239 244 245 246 245 247 257 262 261
286 281 280 280 171 180 264 267 254 195 190 189 170 147 134 130 124 119 112 106 105 106 109 112 115 111 104 108 112 116 120 126 128 151 200 239 242 236 224 219 226 236 243 251 251 247 254 260 242
251 251 263 280 306 231 254 277 235 171 169 173 160 143 139 143 141 131 118 109 101 98 103 107 105 102 102 109 107 101 95 98 157 195 196 227 238 243 239 238 238 245 239 245 246 240 241 252 251
256 259 262 283 294 275 204 271 215 164 170 179 166 147 145 141 137 131 123 112 104 101 101 104 105 106 110 116 114 130 136 139 149 152 181 228 209 205 224 245 254 257 254 255 254 243 237 238 251
242 32 313 275 264 275 258 252 253 155 181 189 180 160 148 142 137 131 125 122 117 114 110 111 110 109 110 106 104 97 84 80 70 51 55 305 238 182 202 223 254 265 261 260 261 263 252 237 236
123 187 250 255 253 257 232 219 250 184 192 183 180 166 152 144 137 132 128 125 123 122 119 119 116 115 113 110 107 95 83 52 37 16 6 337 317 265 233 216 242 257 258 258 258 256 255 250 248
174 203 228 213 216 242 221 205 252 184 177 176 175 166 155 148 146 147 149 147 143 142 140 135 127 126 125 116 108 107 95 54 39 29 354 336 322 312 300 299 276 271 264 260 256 254 254 252 252
193 215 231 249 237 209 179 228 252 68 102 161 162 157 154 155 157 160 161 154 150 151 151 142 134 132 127 120 115 111 113 102 59 19 326 303 289 283 296 295 279 275 273 271 264 259 255 252 249
193 215 252 304 302 287 246 209 127 84 77 144 155 156 163 163 162 162 159 155 153 154 152 143 137 133 128 125 115 94 78 83 28 315 300 291 287 288 292 287 279 275 272 270 268 261 260 258 254
274 244 178 204 237 250 252 230 198 175 185 182 169 167 167 164 163 161 161 157 153 150 143 137 136 136 135 124 113 113 51 31 337 308 296 290 290 291 289 284 280 278 276 273 270 268 265 264 262
189 229 219 216 245 249 277 289 35 160 174 183 186 175 171 169 167 163 159 154 149 143 143 141 139 136 130 120 108 86 3 337 311 293 285 287 289 291 288 285 284 283 281 279 277 274 275 274 274
196 203 205 212 231 219 254 277 63 93 141 166 180 175 170 168 164 159 155 152 150 150 151 149 148 143 136 129 116 329 305 298 292 291 294 299 296 292 289 288 287 285 285 283 282 283 284 282 283